[[{"header":{"parameterUnit":"m.s-1","parameterCategory":1,"la1":30.2992,"la2":30.254,"lo1":-89.0895,"lo2":-89.0443,"dy":0.0025,"dx":0.0025,"nx":19,"ny":19,"refTime":"2026-05-19T03:00:00:Z","depth":0,"parameterNumber":2,"parameterNumberName":"U-component_of_WINDS"},"data":[0,0,0,-2.4125,-2.4126,-2.419,-2.419,-2.4281,-2.4282,0,0,0,0,0,0,0,0,0,0,0,-2.4112,-2.4112,-2.4125,-2.4126,-2.419,-2.419,-2.4281,-2.4282,0,0,0,0,0,0,0,0,0,0,0,-2.4111,-2.4112,-2.4113,-2.4127,-2.419,-2.419,-2.4281,-2.4229,0,0,0,0,0,0,0,0,0,0,-2.4166,-2.4159,-2.4112,-2.4113,-2.4127,-2.419,-2.419,-2.4227,-2.4232,-2.4256,0,-2.4279,0,-2.4282,-2.4289,-2.4289,0,0,0,-2.4122,-2.4154,-2.4166,-2.4113,-2.4128,-2.419,-2.416,-2.423,-2.4236,-2.4264,-2.428,-2.4283,-2.4284,-2.4289,-2.429,-2.4442,-2.4443,0,0,-2.4118,-2.4126,-2.4162,-2.4171,-2.4162,-2.4158,-2.4162,-2.4234,-2.4252,-2.4281,-2.4285,-2.4285,-2.429,-2.4291,-2.4441,-2.4442,0,0,0,-2.4111,-2.4124,-2.4134,-2.4168,-2.4178,-2.416,-2.4165,-2.4248,-2.4251,-2.4286,-2.4286,-2.4291,-2.4292,-2.444,-2.4442,-2.4494,0,0,0,-2.4109,-2.412,-2.4133,-2.4138,-2.4177,-2.4214,-2.4178,-2.4246,-2.4254,-2.4286,-2.4291,-2.4293,-2.4439,-2.4441,-2.449,-2.4517,0,0,0,-2.4105,-2.4119,-2.413,-2.4138,-2.4166,-2.4213,-2.422,-2.4248,-2.4254,-2.4289,-2.4293,-2.4439,-2.4441,-2.4487,-2.4512,-2.4559,0,0,0,-2.4104,-2.4176,-2.4131,-2.4212,-2.4166,-2.4245,-2.4219,-2.4278,-2.4314,-2.4291,-2.4439,-2.4442,-2.4486,-2.4509,-2.4556,-2.4599,-2.4618,0,0,-2.4199,-2.4188,-2.4235,-2.4197,-2.4287,-2.4235,-2.4332,-2.4358,-2.4354,-2.4413,-2.4417,-2.4492,-2.4511,-2.4558,-2.4726,-2.4741,0,0,0,-2.4268,-2.4302,-2.4324,-2.4359,-2.4381,-2.4401,-2.4411,-2.4421,-2.447,-2.4386,-2.4522,-2.4533,-2.456,-2.4581,-2.4594,-2.4616,-2.4452,-2.4451,-2.4451,-2.4413,-2.4405,-2.4482,-2.4481,-2.4516,-2.4526,-2.4553,-2.4567,-2.4549,-2.4581,-2.4598,-2.4701,-2.4725,-2.4735,-2.4758,-2.4621,-2.4622,-2.4622,-2.4622,-2.4551,-2.4597,-2.4572,-2.4637,-2.4628,-2.4683,-2.4696,-2.4681,-2.473,-2.4687,-2.471,-2.4663,-2.4752,-2.4772,-2.4626,-2.4625,-2.4625,-2.4624,-2.4624,-2.4645,-2.4665,-2.4676,-2.4726,-2.4765,-2.4763,-2.4812,-2.4802,-2.4793,-2.4816,-2.4832,-2.4831,-2.4828,-2.4825,-2.4825,-2.4826,-2.4826,-2.4826,-2.4826,-2.4736,-2.4747,-2.4789,-2.4819,-2.484,-2.4867,-2.4879,-2.4899,-2.492,-2.4908,-2.4909,-2.4886,-2.4762,-2.4731,-2.4832,-2.4831,-2.483,-2.483,-2.4829,-2.4877,-2.4844,-2.4909,-2.4931,-2.4965,-2.5005,-2.4992,-2.5035,-2.5051,-2.5075,-2.5049,-2.4959,-2.4946,-2.4936,-2.4909,-2.5051,-2.5051,-2.5051,-2.5051,-2.4955,-2.4948,-2.5013,-2.5048,-2.5081,-2.5076,-2.515,-2.516,-2.5165,-2.5174,-2.5153,-2.5118,-2.5107,-2.5101,-2.5087,-2.5062,-2.5239,-2.5239,-2.5239,-2.5041,-2.5037,-2.5102,-2.5106,-2.5133,-2.5155,-2.5224,-2.5265,-2.5264,-2.5246,-2.5181,-2.5173,-2.5116,-2.5098,-2.5077,-2.5056,-2.501,0,0]},{"header":{"parameterUnit":"m.s-1","parameterCategory":1,"la1":30.2992,"la2":30.254,"lo1":-89.0895,"lo2":-89.0443,"dy":0.0025,"dx":0.0025,"nx":19,"ny":19,"refTime":"2026-05-19T03:00:00:Z","depth":0,"parameterNumber":3,"parameterNumberName":"V-component_of_WINDS"},"data":[0,0,0,1.4295,1.4295,1.4328,1.4328,1.4372,1.4372,0,0,0,0,0,0,0,0,0,0,0,1.4286,1.4286,1.4295,1.4295,1.4328,1.4328,1.4372,1.4372,0,0,0,0,0,0,0,0,0,0,0,1.4286,1.4286,1.4287,1.4296,1.4328,1.4328,1.4372,1.4346,0,0,0,0,0,0,0,0,0,0,1.4314,1.4307,1.4286,1.4287,1.4296,1.4328,1.4328,1.4345,1.4348,1.4358,0,1.4367,0,1.437,1.4375,1.4375,0,0,0,1.4294,1.4305,1.4313,1.4287,1.4296,1.4328,1.4313,1.4347,1.435,1.4362,1.4368,1.4369,1.4371,1.4376,1.4376,1.4438,1.4438,0,0,1.4293,1.4292,1.4311,1.4315,1.431,1.4312,1.4314,1.4349,1.4355,1.4368,1.437,1.4372,1.4376,1.4376,1.4437,1.4438,0,0,0,1.4288,1.4291,1.4298,1.4313,1.4319,1.4313,1.4315,1.4353,1.4356,1.4371,1.4372,1.4376,1.4377,1.4437,1.4438,1.4455,0,0,0,1.4287,1.4288,1.4297,1.4297,1.4318,1.4337,1.4319,1.4353,1.4357,1.4372,1.4376,1.4377,1.4437,1.4437,1.4453,1.4462,0,0,0,1.4283,1.4288,1.4293,1.4297,1.4311,1.4336,1.434,1.4354,1.4358,1.4376,1.4377,1.4436,1.4437,1.4452,1.4461,1.448,0,0,0,1.4279,1.4306,1.4293,1.4324,1.4311,1.4346,1.434,1.4366,1.4383,1.4376,1.4437,1.4437,1.4452,1.4459,1.4479,1.4496,1.4503,0,0,1.4313,1.431,1.4329,1.4318,1.4356,1.4341,1.4381,1.4396,1.4398,1.4424,1.4426,1.4454,1.446,1.448,1.4542,1.4548,0,0,0,1.4339,1.4353,1.4363,1.4379,1.4392,1.4404,1.4414,1.442,1.4442,1.4412,1.4465,1.4469,1.4481,1.4489,1.4494,1.4504,1.4441,1.4441,1.4441,1.4386,1.4388,1.4419,1.4425,1.4442,1.4452,1.4465,1.4475,1.4471,1.4484,1.4492,1.453,1.454,1.4543,1.4554,1.4501,1.4501,1.4501,1.4501,1.4436,1.4456,1.4452,1.4481,1.4483,1.4507,1.4519,1.4516,1.4539,1.4523,1.4533,1.4517,1.455,1.4559,1.4502,1.4502,1.4502,1.4502,1.4502,1.4467,1.4477,1.4485,1.4511,1.453,1.4536,1.4559,1.4559,1.456,1.457,1.4579,1.4579,1.4579,1.4574,1.4574,1.4574,1.4574,1.4575,1.4575,1.4497,1.4505,1.4525,1.4543,1.4555,1.457,1.4582,1.4594,1.4607,1.4605,1.4605,1.4601,1.4552,1.454,1.4577,1.4576,1.4576,1.4576,1.4576,1.4548,1.4537,1.4568,1.458,1.4602,1.4622,1.4623,1.4647,1.4657,1.4668,1.4662,1.4626,1.4623,1.4619,1.4609,1.4661,1.4661,1.4661,1.4661,1.4575,1.4574,1.4607,1.4626,1.4645,1.465,1.4685,1.4696,1.4704,1.4711,1.4703,1.469,1.4686,1.4686,1.468,1.4671,1.4738,1.4738,1.4738,1.4608,1.4609,1.4639,1.4648,1.4666,1.4681,1.4715,1.4738,1.4745,1.4741,1.4716,1.4713,1.4692,1.4685,1.468,1.4672,1.4655,0,0]}]]